Reflectivity
-20 -20 -20 -20 -20 -20 -20 -20 -20 -20 -20 -20 -15 -20 -12 -20 -20 -20 -20 -12 -20 -20 -20 -20 -20 -20 -20 -20 -20 -20 -20 -20 -20 -20 -20 -20 -12 -20 -20 -19 -20 -20 -20 -20 -20
-20 -20 -20 -20 -20 -20 -20 -20 -20 -20 -20 -20 -20 -20 -20 -20 -20 -20 -9 -20 -20 -20 -20 -20 -20 -20 -20 -20 -20 -20 -20 -20 -20 -5 -7 -20 -20 -20 -20 -20 -20 -20 -20 -20 -20
-20 -20 -20 -20 -20 -20 -20 -20 -20 -20 -20 -20 -20 -20 -20 -20 -19 23 -20 -20 -20 -20 -20 -20 -20 -20 -20 -20 -20 -20 -20 -20 -20 -16 -20 -20 -20 -20 -20 -20 -20 -20 -20 -20 -20
-20 -20 -20 -20 -20 -20 -20 -20 -20 -20 -20 -20 -20 -20 -20 -20 18 -20 -20 -20 -20 -20 -20 -20 -20 -20 -20 -20 -20 -20 -20 -20 -7 19 -20 -19 -16 16 -19 -20 -20 -20 -20 -20 -20
-20 -20 -20 -20 -20 -20 -20 -20 -20 -20 -20 -20 -20 -20 -20 -17 11 -20 -20 -20 -20 -20 -20 -20 -20 -20 -20 -20 -20 -20 -20 -10 -20 17 -17 -13 -18 2 -7 -20 -20 -20 -20 -20 -20
-20 -20 -20 -20 -20 -20 -20 -20 -20 -20 -20 -20 -20 -20 -20 16 -20 -20 -20 -20 -20 -20 -20 -13 -20 -20 -20 -20 -20 -20 -11 9 -20 8 23 -6 -20 -20 -17 3 -19 -20 -20 -20 -20
-20 -20 -20 -20 -20 -20 -20 -20 -20 -20 -20 -20 -20 -20 -20 12 -20 -20 -20 -20 -20 -20 -20 -20 -20 -20 -20 -20 -20 -20 -20 8 1 -20 13 13 -18 -20 -20 -19 3 -20 -20 -20 -20
-20 -20 -20 -20 -20 -20 -20 -20 -20 -20 -20 -20 -20 -20 -20 -20 -20 -20 -20 -20 -20 -20 -20 -12 -20 -20 -20 -20 -20 -20 -20 -20 -20 -20 -16 -8 -20 -20 -20 -17 -20 -20 -20 -20 -20
-20 -20 -20 -20 -20 -20 -20 -20 -20 -20 -20 -20 -20 -20 -20 -20 -20 -20 -20 -20 -20 -20 -20 -20 -20 -20 -20 -20 -20 -20 -20 -20 -20 -20 -20 -20 -20 15 -19 -1 -20 -20 -20 -20 -20
-20 -20 -20 -20 -20 -20 -20 -20 -20 -20 -20 -20 -20 -20 -20 -20 -20 -20 -20 -20 -20 -20 -20 -20 -20 -20 -20 -20 -20 -20 -20 -20 -20 -20 -20 -20 -20 -19 8 -11 -16 -20 -20 -20 -20
-20 -20 -20 -20 -20 -20 -20 -20 -20 -20 -20 -20 -20 -20 -20 -20 -20 -20 -20 -20 -20 -20 -9 -20 -20 -20 -20 -20 -20 -20 -20 -20 -20 -20 -20 -20 -20 -20 11 19 10 5 -20 -20 -9
-20 -20 -20 -20 -20 -20 -20 -20 -20 -20 -20 -20 -20 -20 -20 -20 -20 -20 -20 -20 -20 -20 -20 -2 -20 -20 -20 -20 -20 -20 -20 -20 -20 -20 -20 -20 -20 -20 -20 1 13 2 9 16 -5
-20 -20 -20 -20 -20 -20 -20 -20 -20 -20 -20 -20 -20 -20 -20 -20 -20 -20 -20 -20 -20 -20 -20 10 -14 -20 -20 -20 -20 -20 -20 -20 -20 -20 -20 -20 -20 -20 -20 -20 -20 -12 3 12 -19
-20 -20 -20 -20 -20 -20 -20 -20 -20 -20 -20 -20 -20 -20 -20 -20 -20 -20 -20 -20 -20 -15 -20 -10 -20 -20 -20 -20 -20 -20 -20 -20 -20 -20 -20 -20 -20 -20 -20 -20 -20 -20 -20 6 -18
-20 -20 -20 -20 -20 -20 -20 -20 -20 -20 -20 -20 -20 -20 -20 -20 -20 -20 -20 -20 -20 -20 -20 -3 -20 -20 -20 -20 -20 -20 -20 -20 -20 -20 -20 -20 -20 -20 -20 -20 -20 -20 -20 -20 -20
-20 -20 -20 -20 -20 -20 -20 -20 -20 -20 -20 -20 -20 -20 -20 -20 -20 -20 -20 -20 -20 -20 -20 -20 -20 -20 -20 -20 -20 -20 -20 -20 -20 -20 -20 -20 -20 -20 -20 -20 -20 -20 -20 -20 -20
-20 -20 -20 -20 -20 -20 -20 -20 -20 -20 -20 -20 -20 -20 -20 -20 -20 -20 -20 -20 -17 -20 -20 -20 -20 -20 -20 -20 -20 -20 -20 -20 -20 -20 -20 -20 -20 -20 -20 -20 -20 -20 -20 -20 -20
-20 -20 -20 -20 -20 -20 -20 -6 -20 -20 -20 -20 -20 -20 -20 -20 -20 -20 -20 -20 -20 -20 -20 -1 -20 -20 -20 -20 -20 -20 -20 -20 -20 -20 -20 -20 -20 -20 -20 -20 -20 -20 -20 -20 -20
-20 -20 -20 -20 -20 -20 -20 -20 -20 -20 -20 -20 -20 -20 -20 -20 -20 -20 -20 -20 -20 -20 -20 -20 -20 -20 -20 -20 -20 -20 -20 -20 -20 -20 -20 -20 -20 -20 -20 -20 -20 -20 -20 -20 -20
-20 -20 -20 -20 -20 -20 -20 -20 -20 -20 -20 -20 -20 -20 -20 -20 -20 -20 -20 -20 -20 -20 -20 -20 -20 -20 -20 -20 -20 -20 -20 -20 -20 -20 -20 -20 -20 -20 -20 -20 -20 -20 -20 -20 -20
-20 -20 -20 -20 -20 -20 -20 -20 -20 -20 -20 -20 -20 -20 -20 -20 -20 -20 -20 -20 -20 -20 -20 -20 -20 -20 -20 -20 -20 -20 -20 -20 -20 -20 -20 -20 -20 -20 -20 -20 -20 -20 -20 -20 -20
-20 -20 -20 -20 -20 -20 -20 -20 -20 -20 -20 -20 -20 -20 -20 -20 -20 -20 -20 -20 -20 -20 -20 -20 -20 -20 -20 -20 -20 -20 -20 -20 -20 -20 -20 -20 -20 -20 -20 -20 -20 -20 -20 -20 -20
-20 -20 -20 -20 -20 -20 -20 -20 -20 -20 -20 -20 -20 -20 -20 -20 -20 -20 -20 -20 -20 -20 -20 -20 -20 -20 -20 -20 -20 -20 -20 -20 -20 -20 -20 -20 -20 -20 -20 -20 -20 -20 -20 -20 -20
-20 -20 -20 -20 -20 -20 -20 -20 -20 -20 -20 -20 -20 -20 -20 -20 -20 -20 -20 -20 -20 -20 -20 -20 -20 -20 -20 -20 -20 -20 -20 -20 -20 -20 -20 -20 -20 -20 -20 -20 -20 -20 -20 -20 -20
-20 -20 -20 -20 -20 -20 -20 -20 -20 -20 -20 -20 -20 -20 -20 -20 -20 -20 -20 -20 -20 -20 -20 -20 -20 -20 -20 -20 -20 -20 -20 -20 -20 -20 -20 -20 -20 -20 -20 -20 -20 -20 -20 -20 -20
-20 -20 -20 -20 -20 -20 -20 -20 -20 -20 -20 -20 -20 -20 -20 -20 -20 -20 -20 -20 -20 -20 -20 -20 -20 -20 -20 -20 -20 -20 -20 -20 -20 -20 -20 -20 -20 -20 -20 -20 -20 -20 -20 -20 -20
-20 -20 -20 -20 -20 -20 -20 -20 -20 -20 -20 -20 -20 -20 -20 -20 -20 -20 -20 -20 -20 -20 -20 -20 -20 -20 -20 -20 -20 -20 -20 -20 -20 -20 -20 -20 -20 -20 -20 -20 -20 -20 -20 -20 -20
Wind_Speed
9 10 11 14 15 16 16 15 13 11 10 10 6 5 2 5 4 7 8 1 5 6 7 11 6 8 7 5 8 3 4 9 13 12 4 7 5 4 1 7 5 6 4 13 18
10 10 11 12 13 14 15 16 15 10 10 9 7 4 3 5 8 10 3 5 5 4 7 11 7 8 5 6 5 5 4 10 9 9 4 6 7 6 3 9 5 7 14 18 18
10 11 10 10 10 11 15 16 18 12 8 7 4 6 2 4 7 2 6 6 3 5 9 10 10 11 9 8 8 6 5 9 3 5 7 8 1 7 4 5 8 12 15 17 16
11 11 10 10 9 10 12 15 16 17 13 7 3 4 4 5 1 5 3 2 4 7 7 9 7 8 7 11 12 7 11 11 4 5 4 4 1 3 4 3 4 18 19 15 16
10 11 11 10 9 9 10 12 14 14 14 12 4 1 3 5 3 4 3 6 6 8 6 8 8 8 12 9 8 15 10 13 6 3 5 5 3 3 5 7 7 17 17 14 12
9 10 11 11 10 9 9 9 10 11 11 11 7 6 5 3 6 8 7 2 5 7 5 10 8 9 7 14 13 9 11 8 5 6 4 3 2 2 4 9 10 11 13 12 12
7 9 10 11 11 10 10 9 9 10 10 10 10 5 4 3 8 6 4 4 4 2 3 10 7 9 7 8 10 7 9 3 5 5 5 4 3 6 9 8 8 10 10 10 11
6 6 9 10 10 10 9 9 9 9 9 9 10 6 4 2 5 7 3 3 3 1 5 7 5 7 8 11 4 4 5 5 8 9 5 5 4 10 9 8 9 8 7 7 8
8 7 7 9 10 9 10 8 9 8 8 7 5 2 2 1 2 5 4 1 3 2 4 4 3 5 3 6 3 6 6 9 7 11 6 6 1 7 7 8 10 9 9 9 7
9 9 8 8 9 8 11 7 7 7 6 6 6 4 3 3 3 2 3 1 1 1 4 3 4 4 4 5 7 8 9 10 7 9 6 6 4 2 6 6 7 9 8 9 9
8 9 9 8 7 7 7 4 3 4 8 3 5 5 2 2 1 1 1 3 1 1 3 6 3 4 9 10 13 4 9 11 5 7 6 8 8 8 5 3 9 10 12 10 10
9 8 8 8 6 5 4 4 4 2 5 1 3 3 1 2 2 3 2 2 2 2 8 4 6 9 8 6 9 4 9 10 6 5 5 8 9 8 12 8 9 9 9 11 9
10 8 6 7 7 3 3 5 4 5 4 4 1 2 3 3 4 4 3 2 3 3 6 4 6 2 3 4 6 7 7 8 2 7 3 2 7 8 9 8 8 7 8 9 12
8 7 6 3 2 2 1 3 4 4 3 3 2 2 3 3 1 1 1 2 3 3 4 4 1 4 2 6 7 8 7 5 4 6 3 8 5 9 11 13 13 10 8 9 11
8 6 3 1 6 2 4 4 4 2 3 4 2 1 1 4 2 4 2 3 5 1 2 2 5 3 5 3 7 2 6 5 4 4 3 4 2 8 10 6 8 9 9 6 7
6 4 2 3 3 3 4 5 2 2 3 2 1 1 5 3 3 4 4 3 2 3 4 2 1 3 3 1 3 4 3 1 2 3 2 6 7 6 4 7 7 8 8 8 9
6 1 3 5 2 3 3 2 2 2 2 3 2 3 7 1 4 4 5 5 2 3 2 3 3 3 2 3 1 4 1 2 3 3 6 3 4 9 3 8 7 10 9 9 8
2 2 2 3 2 3 2 2 4 0 3 1 2 7 4 2 3 4 3 5 4 3 4 3 2 3 0 2 2 5 1 4 4 5 5 2 5 8 5 8 8 10 9 8 7
1 3 2 2 3 2 3 2 3 5 3 7 7 4 4 4 2 3 7 3 4 5 3 3 2 2 2 3 1 1 2 1 2 5 1 6 5 2 5 6 7 8 8 8 8
2 2 3 1 2 2 2 1 2 3 5 3 4 2 5 3 3 4 5 4 4 2 4 4 2 1 4 1 3 2 3 2 2 2 4 4 3 6 6 7 7 8 8 8 7
3 2 2 1 1 2 2 2 2 2 3 4 6 6 6 4 3 5 2 2 5 2 4 4 3 1 1 7 7 3 2 3 0 3 2 1 7 3 6 8 9 9 9 8 8
3 2 3 3 2 2 2 4 1 2 2 3 2 5 4 5 6 4 5 4 4 4 3 2 4 4 3 3 4 3 1 4 4 5 3 4 7 4 3 6 9 9 9 8 8
2 1 1 2 3 3 2 3 2 2 2 1 3 1 2 3 4 3 5 1 1 3 2 5 4 3 1 2 2 3 4 3 3 4 5 1 6 2 5 4 8 9 8 8 7
3 1 2 2 2 1 3 1 2 2 3 2 3 2 4 4 5 3 3 3 1 2 1 1 4 4 3 1 1 3 4 7 6 4 5 8 4 7 8 7 8 9 9 8 8
2 0 2 2 2 2 2 1 3 3 3 3 3 5 4 4 4 3 1 4 4 4 3 2 4 2 5 6 5 5 5 8 10 12 4 1 5 4 8 10 9 9 9 8 8
2 2 1 3 1 3 4 5 2 1 3 4 4 3 4 4 2 4 5 3 1 4 3 3 4 3 6 4 4 6 8 10 11 13 13 11 17 7 6 9 9 9 9 9 8
1 1 1 2 3 2 3 3 2 3 5 4 3 2 7 5 4 5 5 6 5 4 6 4 3 1 5 2 4 7 15 14 6 4 9 9 6 6 5 7 9 10 10 9 8
Wind_Direction
354 360 3 11 14 9 4 357 348 341 331 329 348 354 158 157 152 211 244 44 10 9 332 285 269 253 234 260 239 283 243 222 227 243 251 108 118 21 355 112 75 42 20 129 134
337 349 357 6 13 12 10 7 1 342 338 333 341 353 227 188 232 237 306 77 46 4 287 297 269 221 226 218 206 214 218 218 224 246 223 141 150 121 153 115 89 66 88 119 130
328 332 344 353 4 8 13 15 10 360 343 331 348 329 304 251 261 123 45 43 273 245 274 287 301 276 230 236 213 199 232 249 334 64 13 138 119 146 156 154 173 148 141 140 146
323 322 330 336 348 0 14 18 20 16 4 346 335 336 313 237 31 80 42 296 283 236 257 266 265 263 230 232 215 263 225 262 124 320 347 75 143 89 285 77 22 150 148 149 161
321 321 325 324 327 345 7 13 19 14 5 11 350 316 272 229 51 75 307 253 216 204 234 252 246 235 248 222 221 226 258 236 85 168 296 36 5 81 157 97 76 129 142 158 170
319 324 325 320 318 319 338 357 5 6 7 12 10 340 275 275 324 10 353 112 204 200 229 253 259 285 286 263 217 188 246 243 126 172 234 136 135 64 148 113 113 136 156 163 176
318 319 322 320 319 321 322 323 332 343 358 353 347 311 277 265 312 1 356 18 171 55 318 267 351 312 335 259 275 232 219 209 135 180 191 192 219 208 133 128 150 159 165 164 179
298 309 317 319 322 324 316 319 313 314 318 335 334 302 292 68 325 283 72 71 10 123 267 344 323 302 285 328 303 220 264 177 185 167 163 176 239 175 146 160 169 169 153 158 170
309 303 314 317 320 325 307 307 299 295 292 296 265 303 51 184 269 16 348 10 153 234 277 279 263 252 228 261 188 235 193 228 155 181 133 182 193 108 150 184 177 166 162 163 180
326 316 315 317 319 321 305 288 304 292 240 243 255 281 233 20 9 357 41 101 266 164 245 230 233 240 237 224 202 197 239 202 168 187 151 188 274 151 155 214 184 167 171 166 177
329 325 314 309 319 323 316 247 214 208 233 14 352 352 57 76 265 163 113 128 34 289 255 213 212 225 234 233 247 272 206 248 170 175 141 194 217 182 182 214 221 187 171 175 173
332 326 315 307 306 314 291 306 40 9 308 118 272 228 239 334 241 130 250 215 196 270 250 152 249 229 294 279 264 302 291 246 42 140 163 206 224 170 174 200 220 184 180 164 166
338 329 320 302 299 263 304 42 334 312 265 150 29 341 70 256 3 113 229 109 243 237 247 262 5 28 295 294 306 257 262 266 161 152 244 355 255 213 196 181 213 218 180 160 172
342 339 332 341 327 0 94 18 313 314 280 90 175 116 194 255 175 68 239 291 231 252 275 238 237 299 270 283 230 248 313 356 124 111 203 167 255 206 212 198 193 197 212 178 172
337 342 6 90 318 289 12 320 319 251 59 353 67 64 328 288 118 168 44 254 313 349 295 342 338 211 247 338 339 16 338 308 318 219 1 214 74 256 199 202 205 201 192 190 149
325 338 322 230 220 32 328 312 270 257 9 31 303 288 255 190 167 135 225 219 330 296 223 36 105 323 10 349 325 326 256 197 338 30 28 256 151 277 175 182 185 172 145 136 124
328 352 299 295 15 333 315 256 322 31 171 1 338 348 323 165 194 206 196 201 242 42 302 165 150 111 290 245 151 275 238 22 11 11 219 325 50 235 138 27 116 120 107 102 103
320 305 304 17 350 321 259 258 32 151 28 116 250 285 245 135 206 202 255 253 208 254 281 156 303 179 102 43 348 227 112 133 210 183 218 134 227 250 78 79 60 77 101 106 126
75 202 231 71 316 296 270 29 348 7 352 334 289 255 205 164 197 223 212 250 62 197 302 317 145 128 345 5 30 171 183 37 317 220 86 201 246 99 118 107 112 108 112 126 128
280 218 97 52 305 278 272 102 27 352 330 283 296 25 320 48 203 178 180 5 106 9 11 324 293 226 121 257 241 295 294 109 323 300 264 225 204 220 183 161 129 140 134 127 115
251 266 109 131 297 249 26 49 342 85 357 324 342 307 328 335 346 291 326 60 25 92 322 328 249 166 101 204 185 167 200 206 174 196 248 354 265 347 189 165 157 149 133 135 134
294 270 155 182 293 216 39 345 297 359 157 292 264 281 301 328 305 290 7 73 14 350 280 57 311 243 190 57 21 341 277 166 138 291 260 170 274 94 79 126 134 134 141 139 121
264 12 162 222 38 8 184 174 271 260 255 285 275 206 331 288 326 33 8 66 60 303 339 358 261 310 334 347 9 238 204 229 63 56 245 26 269 133 146 160 132 130 118 113 114
290 300 149 226 183 256 357 203 221 188 270 281 300 275 281 258 179 285 301 136 133 289 316 284 272 238 211 284 224 222 233 192 164 154 221 221 232 211 188 167 139 133 134 136 141
226 352 111 287 137 312 172 288 281 227 224 200 232 239 298 301 291 239 233 199 180 148 229 238 264 346 278 263 249 228 260 206 215 232 214 355 235 43 178 165 161 142 139 142 143
305 336 204 271 154 241 176 216 253 153 203 181 221 307 250 249 336 306 2 251 343 181 233 154 273 351 284 250 218 263 253 247 227 239 257 276 285 146 128 103 131 150 146 150 154
38 216 166 217 194 223 219 224 185 107 218 254 266 310 260 264 339 308 302 296 277 307 211 188 219 177 272 202 294 278 234 217 216 203 205 230 226 149 143 150 158 158 155 160 157